Regional Weather Roundup
Issued by NWS

Home | Current Version | Previous Version | Text Only | Print | Product List | Glossary Off
Versions: 1 2 3 4 5 6 7 8 9 10 11 12 13 14 15 16 17 18 19 20 21 22 23 24 25 26 27 28 29 30 31 32 33 34 35 36 37 38 39 40 41 42 43 44 45 46 47 48 49 50

000
ASUS43 KLOT 171706
RWRIL

ILLINOIS REGIONAL WEATHER ROUNDUP
NATIONAL WEATHER SERVICE CHICAGO/ROMEOVILLE IL
1200 PM CDT WED SEP 17 2014

NOTE: "FAIR" INDICATES FEW OR NO CLOUDS BELOW 12,000 FEET WITH NO
SIGNIFICANT WEATHER AND/OR OBSTRUCTIONS TO VISIBILITY.

* THESE STATIONS ARE NOT UNDER NWS QUALITY CONTROL. THEY ALSO MAY NOT
  REPORT WEATHER SUCH AS PRECIPITATION OR FOG.

ILZ001-002-007-009-015-016-024-171800-
NORTHWEST ILLINOIS

CITY           SKY/WX    TMP DP  RH WIND       PRES   REMARKS
MOLINE         CLOUDY    65  52  62 S6        30.01F
STERLING*      CLOUDY    70  54  56 W8        30.02F
$$

ILZ003-004-008-010-011-017-018-171800-
NORTH CENTRAL ILLINOIS

CITY           SKY/WX    TMP DP  RH WIND       PRES   REMARKS
ROCKFORD       CLOUDY    65  46  50 SW6       30.04F
ROCHELLE*      MOSUNNY   65  44  46 SW3       30.03F
PERU*          PTSUNNY   64  51  62 SW6       30.04F
$$

ILZ005-006-012>014-019>023-171800-
NORTHEAST ILLINOIS

CITY           SKY/WX    TMP DP  RH WIND       PRES   REMARKS
CHICAGO-OHARE  MOSUNNY   66  44  45 SW7       30.03S
CHICAGO-MIDWAY MOSUNNY   68  46  45 SW6       30.03S
AURORA         CLOUDY    66  46  48 VRB3      30.04R
JOLIET*        SUNNY     66  43  43 SW6       30.04S
WAUKEGAN         N/A    N/A N/A N/A MISG      30.02S
DUPAGE AIRPORT CLOUDY    65  43  44 VRB3      30.03S
WHEELING       MOSUNNY   66  44  45 S5        30.04S
NORTHERLY ISL    N/A     64  48  56 NE6         N/A
$$

LMZ740>746-171800-
SOUTHERN LAKE MICHIGAN

STATION/POSITION SKY/WX   TEMP    WIND        PRES    VSBY  WAVE
                          AIR SEA DIR/SP/G                  HT/PER
                          (F)     (DEG/KT/KT) (MB)    (MI)  (FT/S)
SOUTHERN BUOY              61 65  270/  6/  8 1016.9S         1/ 4
WAUKEGAN HARBOR            63     150/  5/  8   N/A
HARRISON CRIB              62     140/  8/  9   N/A
BURNHAM HARBOR             65     100/  5/  7   N/A
CALUMET HARBOR             64      10/  1/  3 1015.7F
MICHIGAN CITY              62     260/  8/  9   N/A
MICHIGAN CITY 6N           62 65  280/  6/  8   N/A           1
ST. JOSEPH                 61 66  230/  8/ 10   N/A           1/ 3
$$

ILZ025>027-034>036-040-047-049-050-058-095>099-171800-
WEST-CENTRAL ILLINOIS

CITY           SKY/WX    TMP DP  RH WIND       PRES   REMARKS
QUINCY         CLOUDY    62  55  77 SE10      30.00F
MACOMB*        CLOUDY    62  54  75 S9        30.05S
$$

ILZ028>032-037-038-041>044-048-051>054-059>061-171800-
CENTRAL ILLINOIS

CITY           SKY/WX    TMP DP  RH WIND       PRES   REMARKS
DECATUR        PTSUNNY   65  52  62 S8        30.06F
PEORIA         NOT AVBL
SPRINGFIELD    CLOUDY    64  52  64 S8        30.04F
TAYLORVILLE    NOT AVBL
$$

ILZ033-039-045-046-055>057-062-063-171800-
EAST-CENTRAL ILLINOIS

CITY           SKY/WX    TMP DP  RH WIND       PRES   REMARKS
CHAMPAIGN      CLOUDY    64  50  60 SW8       30.06S
MATTOON        PTSUNNY   63  50  62 MISG      30.06S
$$

ILZ079-100>102-171800-
SOUTHWEST ILLINOIS

CITY           SKY/WX    TMP DP  RH WIND       PRES   REMARKS
ALTON          CLOUDY    61  54  77 SE7       30.04F
BELLEVILLE     PTSUNNY   59  57  94 E3        30.04S
CAHOKIA*       CLOUDY    60  56  86 VRB5      30.04F
$$

ILZ064>066-069>071-074>076-080>082-084>086-088>090-092>094-171800-
SOUTH-CENTRAL ILLINOIS

CITY           SKY/WX    TMP DP  RH WIND       PRES   REMARKS
CARBONDALE     CLOUDY    63  54  72 SE7       30.05F
CAIRO*         CLOUDY    65  59  81 CALM      30.06F
METROPOLIS*    CLOUDY    64  57  76 CALM      30.08R
$$

ILZ067-068-072-073-078-083-087-091-171800-
SOUTHEAST ILLINOIS

CITY           SKY/WX    TMP DP  RH WIND       PRES   REMARKS
LAWRENCEVILLE  PTSUNNY   65  52  62 W5        30.07R
FLORA*         PTSUNNY   63  52  66 S7        30.08S
CARMI*         PTSUNNY   67  54  63 S3        30.07S
$$

ABBREVIATIONS USED IN REMARKS
   TC - TEMPERATURE IN CELSIUS
  WCI - WIND CHILL INDEX
   HX - HEAT INDEX
  VSB - VISIBILITY
$$




USA.gov is the U.S. government's official web portal to all federal, state and local government web resources and services.